Location: Madrid
(40.4000°N, 3.6830°W)
Time: 14:48:16
(UTC+02:00)

ISS - Pass Details

Date: 04 April 2020
Orbit: 416 x 423 km, 51.6° (Epoch: 02 April)

Event Time Altitude Azimuth Distance (km) Brightness Sun altitude
Rises 21:47:29 0° 307° (NW) 2,360 1.6 -12.8°
Reaches altitude 10° 21:49:35 10° 308° (NW) 1,494 0.3 -13.1°
Maximum altitude 21:52:56 81° 35° (NE) 426 -3.8 -13.7°
Enters shadow 21:54:34 28° 121° (ESE) 816 -2.9 -14.0°
